| time (UTC) | temp F | wind direction | speed MPH | gust MPH | rain 1hr in | rain 24hr in | rain mn in | humidity % | barometer mb |
| 20260906014559 | 59 | 210 | 0.0 | 0.0 | 0.01 | 0.08 | 0.01 | 89 | 1022.5 |
| 20260906013058 | 59 | 210 | 0.0 | 0.0 | 0.01 | 0.08 | 0.01 | 89 | 1022.4 |
| 20260906011557 | 59 | 210 | 0.0 | 0.0 | 0.00 | 0.07 | 0.00 | 89 | 1022.4 |
| 20260906010136 | 59 | 210 | 0.0 | 0.0 | 0.00 | 0.07 | 0.00 | 89 | 1022.3 |
| 20260906004614 | 59 | 210 | 0.0 | 0.0 | 0.00 | 0.07 | 0.00 | 89 | 1022.2 |
| 20260906003054 | 59 | 210 | 0.0 | 0.0 | 0.00 | 0.07 | 0.00 | 88 | 1022.3 |
| 20260906001602 | 60 | 210 | 0.0 | 0.0 | 0.00 | 0.07 | 0.00 | 88 | 1022.2 |
| 20260906000052 | 60 | 210 | 0.0 | 0.0 | 0.00 | 0.07 | 0.00 | 89 | 1022.0 |
| 20260905234548 | 60 | 210 | 0.0 | 0.0 | 0.00 | 0.07 | 0.00 | 89 | 1021.9 |
| 20260905233049 | 61 | 210 | 0.0 | 0.0 | 0.00 | 0.07 | 0.00 | 89 | 1021.9 |
| 20260905231547 | 61 | 210 | 0.0 | 0.0 | 0.00 | 0.07 | 0.00 | 89 | 1021.9 |
| 20260905230046 | 61 | 210 | 0.0 | 0.0 | 0.00 | 0.07 | 0.00 | 89 | 1021.7 |
| 20260905224544 | 61 | 210 | 0.0 | 0.0 | 0.00 | 0.07 | 0.00 | 88 | 1021.7 |
| 20260905223051 | 61 | 210 | 0.0 | 2.0 | 0.00 | 0.07 | 0.00 | 88 | 1021.9 |
| 20260905221543 | 61 | 210 | 0.0 | 0.0 | 0.00 | 0.07 | 0.00 | 88 | 1021.8 |
| 20260905220040 | 61 | 210 | 0.0 | 0.0 | 0.00 | 0.07 | 0.00 | 89 | 1021.6 |
| 20260905214544 | 62 | 210 | 0.0 | 0.0 | 0.00 | 0.07 | 0.07 | 88 | 1021.5 |
| 20260905213041 | 62 | 210 | 0.0 | 0.0 | 0.00 | 0.07 | 0.07 | 89 | 1021.4 |
| 20260905211537 | 62 | 210 | 0.0 | 1.0 | 0.00 | 0.07 | 0.07 | 88 | 1021.3 |
| 20260905210048 | 61 | 210 | 0.0 | 0.0 | 0.00 | 0.07 | 0.07 | 88 | 1021.3 |
| 20260905204536 | 61 | 210 | 0.0 | 0.0 | 0.00 | 0.07 | 0.07 | 88 | 1021.2 |
| 20260905203037 | 61 | 210 | 0.0 | 0.0 | 0.00 | 0.07 | 0.07 | 88 | 1021.0 |
| 20260905201533 | 61 | 210 | 0.0 | 0.0 | 0.00 | 0.07 | 0.07 | 88 | 1020.8 |
| 20260905200056 | 61 | 210 | 0.0 | 0.0 | 0.00 | 0.07 | 0.07 | 87 | 1021.0 |
| 20260905194530 | 61 | 210 | 0.0 | 0.0 | 0.00 | 0.07 | 0.07 | 86 | 1020.6 |
| 20260905193035 | 61 | 210 | 0.0 | 0.0 | 0.00 | 0.07 | 0.07 | 85 | 1020.4 |
| 20260905191525 | 62 | 210 | 0.0 | 0.0 | 0.00 | 0.07 | 0.07 | 85 | 1020.1 |
| 20260905190026 | 62 | 210 | 0.0 | 0.0 | 0.00 | 0.07 | 0.07 | 85 | 1019.9 |
| 20260905184533 | 62 | 210 | 0.0 | 0.0 | 0.00 | 0.07 | 0.07 | 79 | 1019.7 |
| 20260905183034 | 63 | 210 | 0.0 | 0.0 | 0.00 | 0.07 | 0.07 | 79 | 1019.6 |
| 20260905181520 | 64 | 210 | 0.0 | 0.0 | 0.00 | 0.07 | 0.07 | 78 | 1019.4 |
| 20260905180019 | 64 | 210 | 0.0 | 0.0 | 0.00 | 0.07 | 0.07 | 75 | 1019.2 |
| 20260905174521 | 65 | 210 | 0.0 | 0.0 | 0.00 | 0.07 | 0.07 | 75 | 1018.9 |
| 20260905173020 | 66 | 210 | 0.0 | 0.0 | 0.00 | 0.07 | 0.07 | 74 | 1018.6 |
| 20260905171516 | 66 | 210 | 0.0 | 0.0 | 0.00 | 0.07 | 0.07 | 73 | 1018.5 |
| 20260905170016 | 68 | 210 | 0.0 | 0.0 | 0.00 | 0.07 | 0.07 | 72 | 1018.4 |
| 20260905164516 | 69 | 210 | 0.0 | 0.0 | 0.00 | 0.07 | 0.07 | 70 | 1018.0 |
| 20260905163015 | 71 | 210 | 0.0 | 0.0 | 0.00 | 0.07 | 0.07 | 68 | 1017.9 |
| 20260905161514 | 71 | 210 | 0.0 | 0.0 | 0.00 | 0.07 | 0.07 | 65 | 1017.9 |
| 20260905160014 | 70 | 210 | 0.0 | 0.0 | 0.00 | 0.07 | 0.07 | 69 | 1017.9 |
| 20260905154513 | 69 | 210 | 0.0 | 0.0 | 0.00 | 0.07 | 0.07 | 70 | 1017.8 |
| 20260905153024 | 68 | 210 | 0.0 | 2.0 | 0.00 | 0.07 | 0.07 | 72 | 1017.8 |
| 20260905151512 | 67 | 200 | 0.0 | 1.0 | 0.00 | 0.07 | 0.07 | 72 | 1017.8 |
| 20260905150019 | 67 | 200 | 0.0 | 0.0 | 0.00 | 0.07 | 0.07 | 72 | 1017.9 |
| 20260905144515 | 67 | 200 | 0.0 | 0.0 | 0.00 | 0.07 | 0.07 | 71 | 1018.0 |
| 20260905143012 | 67 | 200 | 0.0 | 0.0 | 0.00 | 0.07 | 0.07 | 70 | 1018.0 |
| 20260905141513 | 66 | 200 | 0.0 | 0.0 | 0.00 | 0.07 | 0.07 | 72 | 1018.1 |
| 20260905140010 | 66 | 125 | 0.0 | 0.0 | 0.00 | 0.07 | 0.07 | 75 | 1018.4 |
| 20260905134518 | 65 | 125 | 0.0 | 0.0 | 0.00 | 0.07 | 0.07 | 74 | 1018.2 |
| 20260905133010 | 66 | 125 | 0.0 | 1.0 | 0.02 | 0.07 | 0.07 | 73 | 1018.1 |
| 20260905131510 | 66 | 148 | 0.0 | 0.0 | 0.06 | 0.07 | 0.07 | 73 | 1018.2 |
| 20260905130008 | 66 | 71 | 0.0 | 0.0 | 0.07 | 0.07 | 0.07 | 71 | 1018.5 |
| 20260905124512 | 66 | 326 | 0.0 | 1.0 | 0.07 | 0.07 | 0.07 | 70 | 1018.5 |
| 20260905123027 | 67 | 304 | 3.0 | 7.0 | 0.06 | 0.06 | 0.06 | 67 | 1018.8 |
| 20260905121506 | 71 | 75 | 2.0 | 7.0 | 0.02 | 0.02 | 0.02 | 56 | 1019.2 |
| 20260905120006 | 73 | 78 | 0.0 | 2.0 | 0.00 | 0.00 | 0.00 | 47 | 1018.9 |
| 20260905114501 | 74 | 192 | 0.0 | 3.0 | 0.00 | 0.00 | 0.00 | 46 | 1018.4 |
| 20260905113107 | 74 | 190 | 0.0 | 4.0 | 0.00 | 0.00 | 0.00 | 46 | 1017.9 |
| 20260905111601 | 74 | 206 | 0.0 | 5.0 | 0.00 | 0.00 | 0.00 | 46 | 1017.9 |
| 20260905110057 | 74 | 209 | 0.0 | 6.0 | 0.00 | 0.00 | 0.00 | 46 | 1018.0 |
| 20260905104557 | 73 | 273 | 4.0 | 10.0 | 0.00 | 0.00 | 0.00 | 44 | 1017.8 |
| 20260905103103 | 74 | 207 | 0.0 | 11.0 | 0.00 | 0.00 | 0.00 | 44 | 1018.0 |
| 20260905101555 | 76 | 290 | 7.0 | 13.0 | 0.00 | 0.00 | 0.00 | 43 | 1017.8 |
| 20260905100100 | 76 | 234 | 1.0 | 9.0 | 0.00 | 0.00 | 0.00 | 44 | 1017.8 |
| 20260905094549 | 75 | 247 | 2.0 | 11.0 | 0.00 | 0.00 | 0.00 | 47 | 1017.5 |
| 20260905093048 | 73 | 244 | 4.0 | 10.0 | 0.00 | 0.00 | 0.00 | 50 | 1017.4 |
| 20260905091552 | 74 | 196 | 3.0 | 10.0 | 0.00 | 0.00 | 0.00 | 51 | 1017.8 |
| 20260905090042 | 73 | 230 | 1.0 | 7.0 | 0.00 | 0.00 | 0.00 | 61 | 1017.5 |
| 20260905084539 | 73 | 209 | 4.0 | 16.0 | 0.00 | 0.00 | 0.00 | 62 | 1017.1 |
| 20260905083038 | 73 | 190 | 0.0 | 11.0 | 0.00 | 0.00 | 0.00 | 65 | 1017.0 |
| 20260905081535 | 73 | 207 | 0.0 | 16.0 | 0.00 | 0.00 | 0.00 | 66 | 1016.6 |
| 20260905080057 | 74 | 221 | 3.0 | 13.0 | 0.00 | 0.00 | 0.00 | 67 | 1016.3 |
| 20260905074530 | 73 | 227 | 4.0 | 12.0 | 0.00 | 0.00 | 0.00 | 73 | 1015.7 |
| 20260905073026 | 71 | 214 | 0.0 | 0.0 | 0.00 | 0.00 | 0.00 | 78 | 1015.1 |
| 20260905071520 | 70 | 214 | 0.0 | 0.0 | 0.00 | 0.00 | 0.00 | 80 | 1014.7 |
| 20260905070019 | 69 | 214 | 0.0 | 0.0 | 0.00 | 0.00 | 0.00 | 80 | 1014.6 |
| 20260905064513 | 68 | 214 | 0.0 | 0.0 | 0.00 | 0.00 | 0.00 | 81 | 1014.4 |
| 20260905063010 | 67 | 214 | 0.0 | 0.0 | 0.00 | 0.00 | 0.00 | 81 | 1014.2 |
| 20260905061508 | 66 | 214 | 0.0 | 0.0 | 0.00 | 0.00 | 0.00 | 82 | 1014.2 |
| 20260905060011 | 64 | 214 | 0.0 | 0.0 | 0.00 | 0.00 | 0.00 | 85 | 1014.0 |
| 20260905054611 | 61 | 214 | 0.0 | 0.0 | 0.00 | 0.00 | 0.00 | 89 | 1013.9 |
| 20260905053109 | 59 | 214 | 0.0 | 0.0 | 0.00 | 0.00 | 0.00 | 88 | 1013.7 |
| 20260905051556 | 58 | 214 | 0.0 | 0.0 | 0.00 | 0.00 | 0.00 | 87 | 1013.6 |
| 20260905050050 | 58 | 214 | 0.0 | 0.0 | 0.00 | 0.00 | 0.00 | 87 | 1013.4 |
| 20260905044548 | 58 | 214 | 0.0 | 0.0 | 0.00 | 0.00 | 0.00 | 87 | 1013.2 |
| 20260905043103 | 58 | 214 | 0.0 | 0.0 | 0.00 | 0.00 | 0.00 | 86 | 1012.8 |
| 20260905041543 | 58 | 214 | 0.0 | 0.0 | 0.00 | 0.00 | 0.00 | 86 | 1012.6 |
| 20260905040049 | 58 | 214 | 0.0 | 0.0 | 0.00 | 0.00 | 0.00 | 86 | 1012.6 |
| 20260905034543 | 58 | 214 | 0.0 | 0.0 | 0.00 | 0.00 | 0.00 | 86 | 1012.5 |
| 20260905033039 | 58 | 214 | 0.0 | 0.0 | 0.00 | 0.00 | 0.00 | 84 | 1012.4 |
| 20260905031541 | 59 | 214 | 0.0 | 0.0 | 0.00 | 0.00 | 0.00 | 83 | 1012.3 |
| 20260905030040 | 59 | 214 | 0.0 | 0.0 | 0.00 | 0.00 | 0.00 | 82 | 1012.3 |
| 20260905024535 | 59 | 214 | 0.0 | 0.0 | 0.00 | 0.00 | 0.00 | 79 | 1012.2 |
| 20260905023033 | 59 | 214 | 0.0 | 0.0 | 0.00 | 0.00 | 0.00 | 79 | 1012.1 |
| 20260905021542 | 60 | 214 | 0.0 | 0.0 | 0.00 | 0.00 | 0.00 | 79 | 1012.2 |
| 20260905020033 | 60 | 214 | 0.0 | 0.0 | 0.00 | 0.00 | 0.00 | 76 | 1012.1 |